Dewpoint
61 59 59 58 57 56 55 54 54 53 52 52 53 54 55 55 53 40 32 41 43 56 55 34 33 26 27 23 19 18 19 16 15 17 17 20 23 30 48 53 53 55 54 58 63
58 57 56 55 55 55 54 52 53 53 52 52 52 53 54 54 50 37 49 58 57 55 35 32 32 25 27 26 27 21 22 19 18 18 22 21 22 20 41 48 49 52 57 62 62
54 54 53 53 53 53 53 52 52 50 51 51 52 52 53 53 36 27 58 58 57 49 33 30 26 27 26 28 28 25 25 26 22 20 22 24 25 17 25 37 44 46 53 60 61
52 51 51 51 51 51 52 52 51 50 49 49 49 52 53 47 28 34 57 55 56 43 36 35 37 36 26 26 28 26 27 25 26 25 27 26 25 23 19 22 29 31 55 59 60
52 51 50 50 50 50 51 52 50 49 49 49 49 51 48 20 21 27 50 42 26 26 32 36 37 35 30 30 33 31 29 27 27 27 27 28 26 26 26 25 20 46 57 58 59
51 51 50 50 50 50 50 51 51 50 49 49 49 51 40 19 23 26 32 31 24 23 22 38 37 35 33 33 31 29 28 29 29 29 30 29 28 27 27 28 36 50 52 56 59
50 50 50 49 49 49 49 50 50 50 49 49 49 49 42 19 22 33 34 27 26 24 22 28 33 33 33 33 34 30 30 30 29 30 29 29 26 24 26 40 39 46 50 53 56
49 50 50 50 50 50 50 50 50 50 50 50 49 48 18 25 33 34 36 35 35 33 28 29 33 30 30 32 32 29 31 24 26 28 27 27 19 26 30 32 30 39 48 53 55
49 50 50 50 50 50 50 50 50 48 49 51 46 35 14 32 26 28 34 34 34 32 32 30 31 29 35 29 28 31 23 26 26 27 27 27 25 27 29 29 30 34 41 51 54
49 50 50 50 50 50 50 49 46 49 48 48 46 28 25 18 33 38 37 35 33 32 32 29 31 29 30 25 19 23 27 28 25 26 27 26 26 27 29 28 29 30 32 46 52
49 50 50 50 50 50 44 41 36 34 41 32 32 26 31 36 38 36 37 34 30 30 27 32 29 26 23 25 21 23 26 24 25 27 28 27 27 29 29 29 29 28 27 38 49
50 50 50 50 50 47 41 41 40 41 37 39 40 38 37 38 34 30 34 27 27 23 26 25 28 31 30 29 27 27 27 27 28 28 29 30 30 30 30 30 29 28 28 30 44
50 50 50 49 46 43 41 40 41 45 38 34 39 35 32 36 30 26 29 29 26 24 22 22 23 26 30 30 29 28 28 28 27 29 31 29 24 20 23 28 27 27 27 28 38
50 50 50 48 43 41 41 42 42 45 19 15 14 21 32 33 23 31 29 27 26 21 23 22 22 22 22 22 28 24 29 28 27 28 21 28 18 21 20 20 23 26 28 27 35
50 50 49 46 43 39 41 43 44 31 17 13 18 22 20 18 17 27 26 28 22 20 21 17 17 21 21 21 22 21 23 25 28 27 26 22 19 16 20 18 19 27 33 34 35
50 50 48 43 42 41 43 44 38 23 10 8 12 10 8 15 17 25 23 25 25 21 20 17 16 15 17 18 19 20 17 18 21 19 14 16 18 14 19 30 30 33 34 35 35
50 50 46 43 38 44 44 37 27 14 12 8 6 9 9 16 16 22 25 26 27 22 22 26 25 23 17 14 20 18 17 11 10 13 11 15 17 17 30 32 32 33 34 34 35
49 49 49 45 45 45 41 34 16 11 9 14 11 9 7 17 19 20 21 21 27 28 27 23 20 26 25 23 22 20 19 15 9 8 10 18 14 18 32 32 32 33 34 35 34
48 45 45 46 47 44 37 23 17 16 14 14 8 7 8 19 17 16 17 23 29 34 29 28 25 28 30 27 26 23 19 21 19 19 17 15 20 34 33 34 34 33 33 34 34
44 42 42 46 47 43 34 25 23 23 22 21 9 12 7 11 13 15 15 22 23 32 32 34 27 29 28 28 29 28 29 25 27 20 15 14 15 17 32 31 31 33 34 35 35
41 36 39 45 46 39 29 28 28 26 26 23 18 15 14 11 11 12 12 19 20 24 29 26 30 26 28 26 27 28 28 31 30 30 25 20 23 33 32 32 32 31 36 35 35
39 32 39 46 34 34 30 32 32 29 29 28 30 23 21 20 17 15 15 15 22 21 16 23 29 21 20 25 30 31 31 27 27 25 29 26 25 35 35 35 35 33 32 37 35
36 35 43 43 28 28 29 28 29 28 27 28 28 29 27 23 21 21 20 19 15 14 18 28 27 18 11 23 30 29 31 31 34 31 25 23 25 36 36 36 37 34 35 38 37
35 29 34 37 36 31 28 27 27 32 29 30 28 30 26 23 27 26 25 26 29 27 34 31 26 21 16 12 21 22 27 30 27 25 21 21 20 28 34 35 35 34 35 37 40
34 30 27 25 28 30 30 29 26 25 29 27 26 28 24 25 24 23 26 29 28 29 26 26 19 21 19 20 21 21 20 21 26 23 20 18 17 19 21 25 28 32 33 34 39
32 28 30 27 25 26 25 24 23 21 20 21 22 21 26 23 22 22 24 24 29 29 26 30 19 18 16 19 20 21 22 24 23 23 24 23 21 21 23 23 21 23 28 32 36
33 34 29 24 24 23 22 20 18 20 19 20 21 22 21 23 24 28 28 30 28 26 29 31 28 24 19 20 20 22 23 23 26 23 22 20 19 20 20 28 28 31 35 34 35
Lifted_Index
4 4 5 5 5 5 5 5 6 6 6 6 7 7 7 7 7 7 7 6 6 6 6 5 5 5 5 5 6 6 5 4 4 5 6 6 6 6 3 1 0 -0 -1 -1 -2
5 5 5 5 5 5 6 6 6 7 7 7 7 8 8 8 7 7 6 6 6 6 6 6 6 5 5 5 6 6 5 5 5 6 6 6 6 6 4 2 1 0 -1 -2 -2
5 5 5 5 6 6 7 8 8 8 9 9 8 8 8 8 7 7 7 7 7 7 7 7 6 6 5 5 5 5 5 5 5 6 6 6 6 6 5 4 3 2 0 -1 -2
5 5 5 6 6 7 9 9 10 10 10 10 9 9 8 7 7 7 8 9 9 9 8 8 7 6 6 5 6 5 5 5 5 6 6 5 5 6 6 5 5 4 1 -1 -2
6 6 6 6 7 9 10 11 11 11 11 10 10 9 8 6 6 8 9 10 10 9 8 7 7 7 7 6 6 6 6 6 6 6 6 5 5 5 5 5 5 4 2 -0 -1
6 6 7 7 8 9 10 11 11 11 11 11 11 9 7 6 7 8 9 9 9 9 8 8 7 7 7 7 7 7 6 6 6 6 6 6 6 6 5 5 5 4 2 0 -1
6 7 7 8 9 9 10 11 11 12 12 13 12 10 7 6 8 9 9 9 9 9 8 8 8 8 8 7 7 7 6 6 6 6 7 7 7 7 6 6 6 4 2 1 0
7 8 8 9 9 10 10 11 12 13 14 14 13 10 7 8 9 9 9 9 9 9 9 9 9 8 8 7 7 6 5 5 5 6 7 7 7 7 7 7 6 5 3 2 1
8 9 10 11 11 11 12 13 14 14 14 14 13 10 8 8 9 9 9 9 9 9 8 8 9 8 7 6 5 5 4 4 5 6 7 7 7 7 7 7 7 6 5 3 2
10 11 12 12 13 13 13 14 13 13 13 13 12 10 9 8 9 9 9 8 8 8 7 7 7 7 6 5 4 4 4 4 5 5 6 7 7 7 7 8 7 7 6 4 3
12 12 13 13 13 14 13 13 12 11 11 10 10 10 9 9 9 8 8 8 7 7 6 6 5 5 5 5 5 5 5 5 5 6 6 6 6 7 7 7 7 7 6 5 4
12 12 13 13 13 13 13 12 11 11 9 9 10 10 10 10 9 7 8 8 7 6 5 5 5 5 5 5 5 5 5 5 5 6 6 6 5 6 7 7 7 7 7 6 5
12 12 12 12 13 12 12 11 11 10 9 9 10 10 11 10 9 8 8 8 6 5 5 5 5 5 5 5 5 5 5 5 5 5 6 5 4 5 7 7 7 7 7 6 6
11 11 11 12 12 11 11 11 10 9 7 8 10 11 11 10 9 8 8 8 6 5 5 5 5 5 5 5 5 5 5 5 5 5 5 4 4 4 6 7 7 7 7 6 6
10 10 11 11 11 11 10 10 9 7 5 7 9 10 10 9 9 8 8 8 7 6 6 6 6 6 6 6 6 6 6 6 6 5 4 4 4 4 6 7 7 7 7 6 6
9 10 10 11 11 11 10 9 8 6 5 6 8 9 8 8 8 8 8 7 7 6 6 6 7 8 7 7 7 7 6 6 5 4 4 4 4 5 6 7 7 7 7 7 6
9 10 10 11 11 11 10 9 7 5 6 7 8 8 8 8 8 8 8 7 6 6 5 6 6 7 7 7 7 6 5 4 3 2 3 4 5 5 7 8 8 7 7 6 6
9 9 10 10 10 10 10 8 6 6 7 8 8 7 7 7 7 8 7 7 6 5 5 4 4 5 6 6 6 5 4 3 1 1 3 4 5 6 7 7 7 7 7 6 6
9 9 9 9 9 9 9 8 7 7 8 8 7 7 6 6 6 6 6 5 5 4 4 4 3 4 4 4 4 4 3 3 2 2 2 4 5 5 6 6 7 6 6 6 5
9 9 9 8 8 8 8 8 8 8 8 8 7 7 6 6 6 5 5 4 4 3 3 3 3 2 2 2 2 2 2 2 1 1 1 2 3 4 5 5 6 6 6 5 5
8 8 8 8 7 8 8 8 8 8 7 7 7 7 6 6 5 5 4 4 3 3 3 2 2 2 2 1 1 1 1 1 1 0 0 1 1 2 3 4 5 5 5 5 5
8 8 8 7 7 7 7 7 7 6 6 6 5 5 5 5 4 4 4 4 3 3 3 2 2 2 2 1 1 1 1 1 1 1 0 0 1 2 3 3 4 5 5 5 5
8 8 8 7 7 7 7 6 6 5 5 4 4 4 3 3 3 3 3 3 3 2 2 1 1 1 2 2 1 1 1 1 1 1 1 1 1 2 2 3 3 4 4 4 4
7 7 7 6 6 6 5 5 4 4 3 3 3 3 3 2 2 2 2 2 2 1 1 0 0 1 1 1 1 1 1 1 1 1 1 1 1 1 1 2 2 3 3 3 3
7 7 6 6 5 5 5 4 4 3 3 3 3 2 2 2 2 1 1 1 1 1 0 0 0 1 1 1 1 1 1 1 1 1 1 1 2 2 1 1 2 2 2 2 2
6 6 5 5 5 5 4 4 4 3 3 3 3 3 2 2 2 2 2 2 1 1 1 0 0 1 1 1 1 0 0 0 0 0 1 1 1 1 1 1 1 1 1 1 1
6 6 5 5 5 5 4 4 4 4 4 4 3 3 3 2 2 2 2 2 2 2 1 0 0 0 0 0 0 0 0 0 -0 -0 0 0 1 1 1 1 1 1 1 1 1